This is the latest recevied weather packets stored in our database for station/object KD9WYV. If no packets are shown the sender has not sent any weather packets the latest 10 day(s).
| Time | Temp. | Humidity | Pressure | Rain* | Wind** | Luminosity | Snow |
|---|---|---|---|---|---|---|---|
| 1777487981 | 16.11° C | 60% | 1012.3 hPa | 0 mm | - | 327 W/m² | - |
| 1777487678 | 15.56° C | 60% | 1012 hPa | 0 mm | - | 230 W/m² | - |
| 1777487374 | 15.56° C | 59% | 1012.2 hPa | 0 mm | - | 239 W/m² | - |
| 1777487073 | 16.11° C | 59% | 1012 hPa | 0 mm | - | 219 W/m² | - |
| 1777486767 | 16.67° C | 57% | 1012.1 hPa | 0 mm | - | 223 W/m² | - |
| 1777486466 | 16.67° C | 56% | 1012 hPa | 0 mm | - | 425 W/m² | - |
| 1777486163 | 16.67° C | 58% | 1012 hPa | 0 mm | - | 262 W/m² | - |
| 1777485860 | 16.67° C | 56% | 1011.9 hPa | 0 mm | - | 324 W/m² | - |
| 1777485560 | 16.67° C | 57% | 1011.8 hPa | 0 mm | - | 304 W/m² | - |
| 1777485257 | 16.67° C | 58% | 1011.9 hPa | 0 mm | - | 473 W/m² | - |
| 1777484954 | 16.67° C | 58% | 1011.9 hPa | 0 mm | - | 182 W/m² | - |
| 1777484651 | 17.22° C | 59% | 1011.9 hPa | 0 mm | - | 300 W/m² | - |
| 1777484347 | 16.67° C | 61% | 1012 hPa | 0 mm | - | 1304 W/m² | - |
| 1777484043 | 16.11° C | 63% | 1011.9 hPa | 0 mm | - | 360 W/m² | - |
| 1777483740 | 16.11° C | 63% | 1011.9 hPa | 0 mm | - | 164 W/m² | - |
| 1777483435 | 16.11° C | 63% | 1012 hPa | 0 mm | - | 252 W/m² | - |
| 1777483130 | 16.11° C | 61% | 1011.9 hPa | 0 mm | - | 288 W/m² | - |
| 1777482828 | 16.11° C | 65% | 1012.1 hPa | 0 mm | - | 639 W/m² | - |
| 1777482523 | 16.11° C | 66% | 1012.1 hPa | 0 mm | - | 254 W/m² | - |
| 1777482222 | 15.56° C | 68% | 1012.2 hPa | 0 mm | - | 338 W/m² | - |
| 1777481918 | 15.56° C | 67% | 1012.4 hPa | 0 mm | - | 228 W/m² | - |
| 1777481616 | 16.11° C | 67% | 1012.3 hPa | 0 mm | - | 248 W/m² | - |
| 1777481313 | 16.11° C | 68% | 1012.3 hPa | 0 mm | - | 506 W/m² | - |
| 1777481009 | 15.56° C | 73% | 1012.2 hPa | 0 mm | - | 463 W/m² | - |
| 1777480706 | 15° C | 75% | 1012.3 hPa | 0 mm | - | 1305 W/m² | - |
* Rain latest hour (hover to see other rain measurements)
** Current wind speed in m/s (hover to see current wind gust speed)